Weather History for Fort Polk, LA

Change the Weather History Date:

Friday, April 4, 2014

  Actual Average (KPOE) Record (KPOE)
Temperature  
Mean Temperature 67 °F -  
Max Temperature 75 °F 73 °F 84 °F (2001)
Min Temperature 60 °F 54 °F 44 °F (2013)
Cooling Degree Days 2    
Growing Degree Days 17 (Base 50)    
Moisture  
Dew Point 59 °F    
Average Humidity 75    
Maximum Humidity 93    
Minimum Humidity 38    
Precipitation  
Precipitation 1.51 in - - ()
Sea Level Pressure  
Sea Level Pressure 29.95 in    
Wind  
Wind Speed 5 mph (NNW)    
Max Wind Speed 13 mph    
Max Gust Speed 26 mph    
Visibility 7 miles    
Events Fog , Rain , Thunderstorm    
Averages and records for this station are not official NWS values.
T = Trace of Precipitation, MM = Missing Value Source: NWS Daily Summary

Daily Weather History Graph

Daily Weather History Graph

Search for Another Location

Airport:

Trip Planner

Search our weather history database for the weather conditions in past years. The results will help you decide how hot, cold, wet, or windy it might be!

Date:

Astronomy

Apr. 04, 2014 Rise Set
Actual Time 6:56 AM CDT 7:32 PM CDT
Civil Twilight 6:32 AM CDT 7:57 PM CDT
Nautical Twilight 6:03 AM CDT 8:25 PM CDT
Astronomical Twilight 5:34 AM CDT 8:55 PM CDT
Moon 10:28 AM CDT (4/4) No Moon Set
Length of Visible Light 13h 24m
Length of Day
12h 36m
Waxing Crescent, 25% of the Moon is Illuminated
Apr 4
Waxing Crescent
Apr 7
First Quarter
Apr 15
Full
Apr 22
Last Quarter
Apr 29
New

Hourly Weather History & Observations

Time (CDT) Temp. Dew Point Humidity Pressure Visibility Wind Dir Wind Speed Gust Speed Precip Events Conditions
12:54 AM 73.0 °F 69.1 °F 87% 29.91 in 6.0 mi Variable 3.5 mph - N/A   Overcast
1:34 AM 72.0 °F 69.1 °F 91% 29.80 in 4.0 mi South 6.9 mph - N/A   Overcast
1:54 AM 72.0 °F 69.1 °F 91% 29.88 in 5.0 mi Variable 5.8 mph - N/A   Overcast
2:47 AM 73.0 °F 69.1 °F 87% 29.79 in 7.0 mi Variable 5.8 mph - N/A   Overcast
2:54 AM 73.0 °F 69.1 °F 87% 29.86 in 7.0 mi Variable 4.6 mph - N/A   Overcast
3:03 AM 73.0 °F 69.1 °F 87% 29.77 in 7.0 mi South 9.2 mph - N/A   Overcast
3:34 AM 73.0 °F 69.1 °F 87% 29.78 in 8.0 mi Variable 4.6 mph - N/A   Overcast
3:54 AM 73.0 °F 69.1 °F 87% 29.85 in 8.0 mi Variable 3.5 mph - N/A   Overcast
4:54 AM 72.0 °F 69.1 °F 91% 29.88 in 4.0 mi Variable 5.8 mph - 0.00 in Rain Light Rain
5:18 AM 72.0 °F 69.1 °F 91% 29.79 in 4.0 mi Variable 5.8 mph - 0.01 in   Overcast
5:29 AM 72.0 °F 69.1 °F 91% 29.80 in 5.0 mi Variable 4.6 mph - 0.01 in Rain , Thunderstorm Light Thunderstorms and Rain
5:54 AM 72.0 °F 69.1 °F 91% 29.88 in 6.0 mi Variable 5.8 mph - 0.02 in Rain , Thunderstorm Light Thunderstorms and Rain
6:09 AM 72.0 °F 69.1 °F 91% 29.81 in 1.8 mi Variable 5.8 mph - 0.10 in Rain , Thunderstorm Heavy Thunderstorms and Rain
6:23 AM 69.1 °F 66.9 °F 93% 29.82 in 1.5 mi Variable 4.6 mph - 0.22 in Rain , Thunderstorm Light Thunderstorms and Rain
6:27 AM 69.1 °F 66.0 °F 90% 29.82 in 3.0 mi Calm Calm - 0.22 in Rain , Thunderstorm Light Thunderstorms and Rain
6:40 AM 68.0 °F 64.9 °F 90% 29.87 in 1.8 mi North - - 0.42 in Rain , Thunderstorm Light Thunderstorms and Rain
6:44 AM 66.9 °F 64.9 °F 93% 29.88 in 0.8 mi WNW 4.6 mph - 0.68 in Rain , Thunderstorm Heavy Thunderstorms and Rain
6:54 AM 64.9 °F 62.1 °F 90% 30.00 in 0.5 mi NNW 9.2 mph 26.5 mph 1.27 in Fog , Rain , Thunderstorm Heavy Thunderstorms and Rain
6:59 AM 62.1 °F 60.1 °F 93% 29.90 in 0.8 mi North 12.7 mph 26.5 mph 0.10 in Rain , Thunderstorm Heavy Thunderstorms and Rain
7:06 AM 62.1 °F 59.0 °F 90% 29.89 in 2.0 mi Variable 6.9 mph 23.0 mph 0.17 in Rain , Thunderstorm Heavy Thunderstorms and Rain
7:14 AM 62.1 °F 57.9 °F 86% 29.90 in 6.0 mi Variable 4.6 mph 19.6 mph 0.18 in Rain , Thunderstorm Light Thunderstorms and Rain
7:54 AM 62.1 °F 59.0 °F 90% 30.12 in 10.0 mi Variable 4.6 mph - 0.19 in Rain , Thunderstorm Light Thunderstorms and Rain
8:54 AM 61.0 °F 57.0 °F 87% 30.01 in 10.0 mi Variable 4.6 mph - 0.03 in   Partly Cloudy
9:54 AM 63.0 °F 57.0 °F 81% 30.06 in 10.0 mi Variable 6.9 mph - N/A   Scattered Clouds
10:54 AM 63.0 °F 54.0 °F 72% 30.09 in 10.0 mi Variable 5.8 mph - N/A   Scattered Clouds
11:15 AM 64.0 °F 53.1 °F 67% 30.01 in 10.0 mi North - - N/A   Mostly Cloudy
11:33 AM 64.9 °F 53.1 °F 65% 30.01 in 10.0 mi Variable 4.6 mph - N/A   Scattered Clouds
11:54 AM 66.9 °F 54.0 °F 63% 30.09 in 10.0 mi Variable 5.8 mph - N/A   Clear
12:54 PM 70.0 °F 54.0 °F 57% 30.08 in 10.0 mi Variable 4.6 mph - N/A   Clear
1:54 PM 71.1 °F 53.1 °F 53% 30.08 in 10.0 mi Variable 5.8 mph - N/A   Clear
2:54 PM 73.0 °F 52.0 °F 48% 30.06 in 10.0 mi Variable 5.8 mph - N/A   Clear
3:54 PM 73.9 °F 48.0 °F 40% 30.04 in 10.0 mi Variable 6.9 mph - N/A   Clear
4:54 PM 73.9 °F 48.0 °F 40% 30.04 in 10.0 mi Variable 3.5 mph - N/A   Clear
5:54 PM 72.0 °F 45.0 °F 38% 30.04 in 10.0 mi NNE 5.8 mph - N/A   Clear
6:54 PM 69.1 °F 45.0 °F 42% 30.06 in 10.0 mi Calm Calm - N/A   Clear
7:54 PM 63.0 °F 48.9 °F 60% 30.06 in 10.0 mi North 3.5 mph - N/A   Clear
8:54 PM 63.0 °F 46.0 °F 54% 30.09 in 10.0 mi Variable 3.5 mph - N/A   Clear
9:54 PM 62.1 °F 42.1 °F 48% 30.11 in 10.0 mi Variable 3.5 mph - N/A   Clear
10:54 PM 61.0 °F 39.9 °F 46% 30.11 in 10.0 mi Variable 3.5 mph - N/A   Clear
11:54 PM 60.1 °F 39.9 °F 47% 30.12 in 10.0 mi Variable 4.6 mph - N/A   Clear